| time (UTC) | temp C | wind direction | speed KPH | gust KPH | rain 1hr cm | rain 24hr cm | rain mn cm | humidity % | barometer mb |
| 20260509012023 | 13 | 204 | 0.0 | 1.6 | 0.00 | 0.00 | 0.00 | 62 | 1008.2 |
| 20260509011522 | 14 | 204 | 0.0 | 1.6 | 0.00 | 0.00 | 0.00 | 62 | 1008.1 |
| 20260509011021 | 14 | 204 | 0.0 | 3.2 | 0.00 | 0.00 | 0.00 | 61 | 1008.1 |
| 20260509010524 | 14 | 204 | 0.0 | 3.2 | 0.00 | 0.00 | 0.00 | 61 | 1008.2 |
| 20260509010026 | 15 | 204 | 0.0 | 3.2 | 0.00 | 0.00 | 0.00 | 61 | 1008.1 |
| 20260509005520 | 15 | 204 | 0.0 | 3.2 | 0.00 | 0.00 | 0.00 | 60 | 1008.0 |
| 20260509005021 | 15 | 204 | 0.0 | 3.2 | 0.00 | 0.00 | 0.00 | 59 | 1008.0 |
| 20260509004531 | 15 | 204 | 0.0 | 8.0 | 0.00 | 0.00 | 0.00 | 59 | 1008.0 |
| 20260509004021 | 15 | 204 | 0.0 | 8.0 | 0.00 | 0.00 | 0.00 | 58 | 1008.0 |
| 20260509003523 | 15 | 187 | 1.6 | 8.0 | 0.00 | 0.00 | 0.00 | 58 | 1007.8 |
| 20260509003021 | 15 | 191 | 3.2 | 8.0 | 0.00 | 0.00 | 0.00 | 58 | 1007.8 |
| 20260509002519 | 15 | 183 | 3.2 | 8.0 | 0.00 | 0.00 | 0.00 | 58 | 1007.7 |
| 20260509002019 | 15 | 171 | 1.6 | 12.9 | 0.00 | 0.00 | 0.00 | 58 | 1007.7 |
| 20260509001520 | 16 | 182 | 4.8 | 12.9 | 0.00 | 0.00 | 0.00 | 58 | 1007.6 |
| 20260509001021 | 16 | 169 | 3.2 | 12.9 | 0.00 | 0.00 | 0.00 | 58 | 1007.6 |
| 20260509000521 | 16 | 197 | 4.8 | 12.9 | 0.00 | 0.00 | 0.00 | 57 | 1007.6 |
| 20260509000020 | 16 | 178 | 4.8 | 12.9 | 0.00 | 0.00 | 0.00 | 57 | 1007.6 |
| 20260508235521 | 16 | 179 | 3.2 | 12.9 | 0.00 | 0.00 | 0.00 | 57 | 1007.6 |
| 20260508235019 | 16 | 174 | 4.8 | 12.9 | 0.00 | 0.00 | 0.00 | 57 | 1007.6 |
| 20260508234518 | 16 | 182 | 4.8 | 16.1 | 0.00 | 0.00 | 0.00 | 56 | 1007.6 |
| 20260508234018 | 16 | 190 | 3.2 | 16.1 | 0.00 | 0.00 | 0.00 | 56 | 1007.6 |
| 20260508233518 | 16 | 163 | 6.4 | 12.9 | 0.00 | 0.00 | 0.00 | 56 | 1007.6 |
| 20260508233018 | 16 | 194 | 6.4 | 12.9 | 0.00 | 0.00 | 0.00 | 56 | 1007.6 |
| 20260508232517 | 16 | 126 | 1.6 | 14.5 | 0.00 | 0.00 | 0.00 | 55 | 1007.6 |
| 20260508232017 | 17 | 140 | 4.8 | 16.1 | 0.00 | 0.00 | 0.00 | 55 | 1007.6 |
| 20260508231517 | 17 | 159 | 4.8 | 16.1 | 0.00 | 0.00 | 0.00 | 55 | 1007.6 |
| 20260508231017 | 17 | 160 | 6.4 | 16.1 | 0.00 | 0.00 | 0.00 | 54 | 1007.7 |
| 20260508230516 | 17 | 205 | 6.4 | 16.1 | 0.00 | 0.00 | 0.00 | 53 | 1007.7 |
| 20260508230017 | 17 | 178 | 3.2 | 9.7 | 0.00 | 0.00 | 0.00 | 53 | 1007.7 |
| 20260508225515 | 17 | 208 | 3.2 | 6.4 | 0.00 | 0.00 | 0.00 | 51 | 1007.8 |
| 20260508225015 | 17 | 178 | 3.2 | 8.0 | 0.00 | 0.00 | 0.00 | 47 | 1007.9 |
| 20260508224514 | 17 | 171 | 3.2 | 6.4 | 0.00 | 0.00 | 0.00 | 52 | 1007.9 |
| 20260508224019 | 17 | 188 | 1.6 | 8.0 | 0.00 | 0.00 | 0.00 | 49 | 1007.9 |
| 20260508223514 | 18 | 193 | 1.6 | 11.3 | 0.00 | 0.00 | 0.00 | 48 | 1008.0 |
| 20260508223014 | 18 | 175 | 4.8 | 11.3 | 0.00 | 0.00 | 0.00 | 40 | 1008.0 |
| 20260508222515 | 18 | 163 | 3.2 | 6.4 | 0.00 | 0.00 | 0.00 | 44 | 1008.2 |
| 20260508222013 | 18 | 101 | 1.6 | 11.3 | 0.00 | 0.00 | 0.00 | 47 | 1008.2 |
| 20260508221513 | 18 | 152 | 3.2 | 11.3 | 0.00 | 0.00 | 0.00 | 47 | 1008.0 |
| 20260508221013 | 18 | 119 | 1.6 | 11.3 | 0.00 | 0.00 | 0.00 | 46 | 1008.1 |
| 20260508220513 | 18 | 82 | 3.2 | 11.3 | 0.00 | 0.00 | 0.00 | 49 | 1008.0 |
| 20260508220012 | 18 | 83 | 3.2 | 12.9 | 0.00 | 0.00 | 0.00 | 48 | 1008.1 |
| 20260508215512 | 18 | 99 | 4.8 | 14.5 | 0.00 | 0.00 | 0.00 | 49 | 1008.2 |
| 20260508215012 | 18 | 94 | 4.8 | 14.5 | 0.00 | 0.00 | 0.00 | 47 | 1008.1 |
| 20260508214511 | 18 | 65 | 3.2 | 16.1 | 0.00 | 0.00 | 0.00 | 49 | 1008.1 |
| 20260508214013 | 18 | 74 | 8.0 | 16.1 | 0.00 | 0.00 | 0.00 | 47 | 1008.3 |
| 20260508213510 | 18 | 72 | 3.2 | 16.1 | 0.00 | 0.00 | 0.00 | 47 | 1008.3 |
| 20260508213016 | 18 | 106 | 4.8 | 16.1 | 0.00 | 0.00 | 0.00 | 47 | 1008.4 |
| 20260508212511 | 18 | 95 | 3.2 | 17.7 | 0.00 | 0.00 | 0.00 | 44 | 1008.3 |
| 20260508212014 | 18 | 95 | 8.0 | 17.7 | 0.00 | 0.00 | 0.00 | 44 | 1008.4 |
| 20260508211509 | 18 | 88 | 4.8 | 14.5 | 0.00 | 0.00 | 0.00 | 44 | 1008.4 |
| 20260508211012 | 18 | 166 | 3.2 | 14.5 | 0.00 | 0.00 | 0.00 | 44 | 1008.6 |
| 20260508210509 | 18 | 101 | 6.4 | 14.5 | 0.00 | 0.00 | 0.00 | 45 | 1008.5 |
| 20260508210010 | 19 | 94 | 4.8 | 14.5 | 0.00 | 0.00 | 0.00 | 44 | 1008.5 |
| 20260508205507 | 18 | 144 | 3.2 | 14.5 | 0.00 | 0.00 | 0.00 | 43 | 1008.5 |
| 20260508205010 | 18 | 209 | 3.2 | 9.7 | 0.00 | 0.00 | 0.00 | 35 | 1008.7 |
| 20260508204507 | 18 | 234 | 3.2 | 9.7 | 0.00 | 0.00 | 0.00 | 36 | 1008.7 |
| 20260508204005 | 18 | 223 | 3.2 | 8.0 | 0.00 | 0.00 | 0.00 | 35 | 1008.9 |
| 20260508203505 | 18 | 245 | 3.2 | 9.7 | 0.00 | 0.00 | 0.00 | 35 | 1008.8 |
| 20260508203013 | 18 | 213 | 1.6 | 9.7 | 0.00 | 0.00 | 0.00 | 34 | 1009.0 |
| 20260508202505 | 18 | 276 | 3.2 | 12.9 | 0.00 | 0.00 | 0.00 | 35 | 1008.9 |
| 20260508202004 | 18 | 225 | 3.2 | 12.9 | 0.00 | 0.00 | 0.00 | 33 | 1009.1 |
| 20260508201506 | 18 | 221 | 4.8 | 9.7 | 0.00 | 0.00 | 0.00 | 31 | 1009.2 |
| 20260508201002 | 18 | 193 | 6.4 | 17.7 | 0.00 | 0.00 | 0.00 | 31 | 1009.4 |
| 20260508200502 | 18 | 277 | 8.0 | 16.1 | 0.00 | 0.00 | 0.00 | 33 | 1009.4 |
| 20260508200002 | 18 | 256 | 6.4 | 16.1 | 0.00 | 0.00 | 0.00 | 32 | 1009.5 |
| 20260508195501 | 18 | 290 | 3.2 | 16.1 | 0.00 | 0.00 | 0.00 | 34 | 1009.6 |
| 20260508195001 | 19 | 211 | 3.2 | 16.1 | 0.00 | 0.00 | 0.00 | 30 | 1009.7 |
| 20260508194600 | 19 | 188 | 8.0 | 19.3 | 0.00 | 0.00 | 0.00 | 32 | 1009.8 |
| 20260508194059 | 19 | 182 | 4.8 | 12.9 | 0.00 | 0.00 | 0.00 | 33 | 1009.8 |
| 20260508193558 | 18 | 270 | 1.6 | 14.5 | 0.00 | 0.00 | 0.00 | 33 | 1010.0 |
| 20260508193113 | 18 | 254 | 3.2 | 17.7 | 0.00 | 0.00 | 0.00 | 32 | 1010.2 |
| 20260508192557 | 18 | 289 | 6.4 | 17.7 | 0.00 | 0.00 | 0.00 | 36 | 1010.2 |
| 20260508192059 | 18 | 240 | 6.4 | 16.1 | 0.00 | 0.00 | 0.00 | 32 | 1010.1 |
| 20260508191558 | 18 | 259 | 3.2 | 16.1 | 0.00 | 0.00 | 0.00 | 35 | 1010.2 |
| 20260508191059 | 18 | 223 | 6.4 | 17.7 | 0.00 | 0.00 | 0.00 | 33 | 1010.3 |
| 20260508190555 | 18 | 222 | 8.0 | 17.7 | 0.00 | 0.00 | 0.00 | 30 | 1010.4 |
| 20260508190107 | 18 | 227 | 6.4 | 14.5 | 0.00 | 0.00 | 0.00 | 33 | 1010.4 |
| 20260508185555 | 18 | 167 | 4.8 | 14.5 | 0.00 | 0.00 | 0.00 | 33 | 1010.4 |
| 20260508185053 | 18 | 86 | 4.8 | 12.9 | 0.00 | 0.00 | 0.00 | 34 | 1010.5 |
| 20260508184555 | 18 | 223 | 4.8 | 12.9 | 0.00 | 0.00 | 0.00 | 35 | 1010.6 |
| 20260508184049 | 17 | 228 | 3.2 | 12.9 | 0.00 | 0.00 | 0.00 | 33 | 1010.6 |
| 20260508183549 | 17 | 263 | 4.8 | 11.3 | 0.00 | 0.00 | 0.00 | 33 | 1010.6 |
| 20260508183109 | 17 | 298 | 1.6 | 20.9 | 0.00 | 0.00 | 0.00 | 37 | 1010.7 |
| 20260508182548 | 17 | 338 | 6.4 | 20.9 | 0.00 | 0.00 | 0.00 | 37 | 1010.8 |
| 20260508182047 | 17 | 238 | 4.8 | 12.9 | 0.00 | 0.00 | 0.00 | 35 | 1010.9 |
| 20260508181550 | 17 | 186 | 1.6 | 17.7 | 0.00 | 0.00 | 0.00 | 37 | 1010.8 |
| 20260508181049 | 17 | 297 | 9.7 | 17.7 | 0.00 | 0.00 | 0.00 | 34 | 1011.0 |
| 20260508180549 | 17 | 275 | 6.4 | 12.9 | 0.00 | 0.00 | 0.00 | 36 | 1011.0 |
| 20260508180058 | 17 | 284 | 4.8 | 16.1 | 0.00 | 0.00 | 0.00 | 34 | 1011.1 |
| 20260508175545 | 17 | 296 | 8.0 | 14.5 | 0.00 | 0.00 | 0.00 | 36 | 1011.2 |
| 20260508175044 | 17 | 268 | 4.8 | 14.5 | 0.00 | 0.00 | 0.00 | 37 | 1011.3 |
| 20260508174559 | 17 | 182 | 6.4 | 14.5 | 0.00 | 0.00 | 0.00 | 35 | 1011.4 |
| 20260508174041 | 17 | 196 | 3.2 | 16.1 | 0.00 | 0.00 | 0.00 | 32 | 1011.7 |
| 20260508173540 | 17 | 177 | 8.0 | 19.3 | 0.00 | 0.00 | 0.00 | 35 | 1011.8 |
| 20260508173038 | 17 | 254 | 9.7 | 19.3 | 0.00 | 0.00 | 0.00 | 34 | 1011.8 |
| 20260508172537 | 17 | 231 | 4.8 | 17.7 | 0.00 | 0.00 | 0.00 | 35 | 1011.9 |
| 20260508172039 | 16 | 117 | 1.6 | 14.5 | 0.00 | 0.00 | 0.00 | 36 | 1011.9 |
| 20260508171534 | 16 | 200 | 4.8 | 17.7 | 0.00 | 0.00 | 0.00 | 35 | 1012.1 |
| 20260508171034 | 16 | 212 | 6.4 | 17.7 | 0.00 | 0.00 | 0.00 | 36 | 1012.0 |
| 20260508170534 | 16 | 293 | 3.2 | 19.3 | 0.00 | 0.00 | 0.00 | 37 | 1012.0 |
| 20260508170036 | 16 | 238 | 6.4 | 19.3 | 0.00 | 0.00 | 0.00 | 36 | 1012.1 |
| 20260508165531 | 16 | 244 | 3.2 | 16.1 | 0.00 | 0.00 | 0.00 | 37 | 1012.2 |
| 20260508165031 | 16 | 256 | 6.4 | 16.1 | 0.00 | 0.00 | 0.00 | 38 | 1012.4 |
| 20260508164537 | 16 | 309 | 4.8 | 16.1 | 0.00 | 0.00 | 0.00 | 38 | 1012.4 |
| 20260508164028 | 16 | 323 | 3.2 | 19.3 | 0.00 | 0.00 | 0.00 | 42 | 1012.4 |
| 20260508163527 | 15 | 285 | 8.0 | 19.3 | 0.00 | 0.00 | 0.00 | 37 | 1012.5 |
| 20260508163030 | 15 | 261 | 9.7 | 17.7 | 0.00 | 0.00 | 0.00 | 38 | 1012.7 |
| 20260508162524 | 15 | 246 | 8.0 | 20.9 | 0.00 | 0.00 | 0.00 | 36 | 1012.7 |
| 20260508162023 | 15 | 268 | 8.0 | 20.9 | 0.00 | 0.00 | 0.00 | 37 | 1012.6 |
| 20260508161521 | 15 | 329 | 11.3 | 20.9 | 0.00 | 0.00 | 0.00 | 37 | 1012.6 |
| 20260508161020 | 15 | 235 | 4.8 | 11.3 | 0.00 | 0.00 | 0.00 | 39 | 1012.5 |
| 20260508160519 | 15 | 291 | 3.2 | 14.5 | 0.00 | 0.00 | 0.00 | 40 | 1012.6 |
| 20260508160019 | 14 | 206 | 6.4 | 14.5 | 0.00 | 0.00 | 0.00 | 40 | 1012.6 |
| 20260508155516 | 14 | 299 | 4.8 | 14.5 | 0.00 | 0.00 | 0.00 | 40 | 1012.7 |
| 20260508155014 | 13 | 313 | 4.8 | 12.9 | 0.00 | 0.00 | 0.00 | 41 | 1012.8 |
| 20260508154513 | 13 | 275 | 3.2 | 16.1 | 0.00 | 0.00 | 0.00 | 40 | 1012.8 |
| 20260508154011 | 13 | 323 | 3.2 | 12.9 | 0.00 | 0.00 | 0.00 | 46 | 1012.8 |
| 20260508153512 | 12 | 229 | 1.6 | 8.0 | 0.00 | 0.00 | 0.00 | 45 | 1012.8 |
| 20260508153019 | 12 | 273 | 1.6 | 11.3 | 0.00 | 0.00 | 0.00 | 50 | 1012.8 |
| 20260508152511 | 12 | 291 | 4.8 | 11.3 | 0.00 | 0.00 | 0.00 | 50 | 1012.8 |
| 20260508152010 | 12 | 209 | 3.2 | 11.3 | 0.00 | 0.00 | 0.00 | 53 | 1012.9 |
| 20260508151506 | 12 | 186 | 3.2 | 11.3 | 0.00 | 0.00 | 0.00 | 54 | 1013.0 |
| 20260508151005 | 12 | 214 | 3.2 | 8.0 | 0.00 | 0.00 | 0.00 | 55 | 1013.1 |
| 20260508150504 | 11 | 192 | 0.0 | 8.0 | 0.00 | 0.00 | 0.00 | 55 | 1013.1 |
| 20260508150003 | 11 | 163 | 4.8 | 8.0 | 0.00 | 0.00 | 0.00 | 55 | 1013.1 |
| 20260508145503 | 11 | 90 | 1.6 | 11.3 | 0.00 | 0.00 | 0.00 | 54 | 1013.1 |
| 20260508145000 | 11 | 299 | 3.2 | 11.3 | 0.00 | 0.00 | 0.00 | 56 | 1013.1 |
| 20260508144614 | 11 | 141 | 0.0 | 6.4 | 0.00 | 0.00 | 0.00 | 59 | 1013.2 |
| 20260508144101 | 11 | 149 | 0.0 | 3.2 | 0.00 | 0.00 | 0.00 | 59 | 1013.3 |
| 20260508143558 | 11 | 149 | 0.0 | 11.3 | 0.00 | 0.00 | 0.00 | 59 | 1013.3 |
| 20260508143100 | 11 | 217 | 1.6 | 6.4 | 0.00 | 0.00 | 0.00 | 57 | 1013.3 |
| 20260508142556 | 10 | 207 | 0.0 | 4.8 | 0.00 | 0.00 | 0.00 | 59 | 1013.4 |
| 20260508142055 | 10 | 198 | 1.6 | 11.3 | 0.00 | 0.00 | 0.00 | 57 | 1013.4 |
| 20260508141604 | 10 | 227 | 4.8 | 11.3 | 0.00 | 0.00 | 0.00 | 58 | 1013.5 |
| 20260508141053 | 10 | 184 | 3.2 | 8.0 | 0.00 | 0.00 | 0.00 | 59 | 1013.5 |
| 20260508140552 | 10 | 242 | 3.2 | 8.0 | 0.00 | 0.00 | 0.00 | 59 | 1013.6 |
| 20260508140052 | 10 | 159 | 1.6 | 4.8 | 0.00 | 0.00 | 0.00 | 61 | 1013.6 |
| 20260508135552 | 10 | 159 | 0.0 | 8.0 | 0.00 | 0.00 | 0.00 | 63 | 1013.7 |
| 20260508135052 | 10 | 159 | 1.6 | 8.0 | 0.00 | 0.00 | 0.00 | 63 | 1013.7 |
| 20260508134552 | 10 | 159 | 3.2 | 8.0 | 0.00 | 0.00 | 0.00 | 63 | 1013.6 |
| 20260508134051 | 9 | 150 | 0.0 | 8.0 | 0.00 | 0.00 | 0.00 | 65 | 1013.7 |
| 20260508133548 | 9 | 150 | 1.6 | 8.0 | 0.00 | 0.00 | 0.00 | 66 | 1013.7 |
| 20260508133048 | 9 | 157 | 0.0 | 11.3 | 0.00 | 0.00 | 0.00 | 64 | 1013.7 |
| 20260508132547 | 9 | 156 | 4.8 | 11.3 | 0.00 | 0.00 | 0.00 | 65 | 1013.7 |
| 20260508132046 | 8 | 148 | 1.6 | 8.0 | 0.00 | 0.00 | 0.00 | 66 | 1013.8 |
| 20260508131557 | 8 | 146 | 1.6 | 6.4 | 0.00 | 0.00 | 0.00 | 67 | 1013.7 |
| 20260508131044 | 8 | 150 | 3.2 | 8.0 | 0.00 | 0.00 | 0.00 | 68 | 1013.8 |
| 20260508130545 | 8 | 161 | 1.6 | 8.0 | 0.00 | 0.00 | 0.00 | 67 | 1013.8 |
| 20260508130042 | 8 | 154 | 1.6 | 4.8 | 0.00 | 0.00 | 0.00 | 69 | 1013.8 |
| 20260508125542 | 8 | 159 | 1.6 | 9.7 | 0.00 | 0.00 | 0.00 | 68 | 1013.7 |
| 20260508125042 | 7 | 161 | 1.6 | 9.7 | 0.00 | 0.00 | 0.00 | 68 | 1013.8 |
| 20260508124541 | 7 | 161 | 3.2 | 8.0 | 0.00 | 0.00 | 0.00 | 69 | 1013.7 |
| 20260508124040 | 7 | 140 | 1.6 | 4.8 | 0.00 | 0.00 | 0.00 | 70 | 1013.6 |
| 20260508123540 | 7 | 240 | 1.6 | 4.8 | 0.00 | 0.00 | 0.00 | 70 | 1013.4 |
| 20260508123040 | 7 | 240 | 0.0 | 3.2 | 0.00 | 0.00 | 0.00 | 72 | 1013.5 |
| 20260508122540 | 6 | 240 | 0.0 | 4.8 | 0.00 | 0.00 | 0.00 | 73 | 1013.6 |
| 20260508122043 | 6 | 240 | 1.6 | 4.8 | 0.00 | 0.00 | 0.00 | 74 | 1013.5 |
| 20260508121539 | 6 | 240 | 0.0 | 4.8 | 0.00 | 0.00 | 0.00 | 77 | 1013.4 |
| 20260508121038 | 6 | 240 | 1.6 | 4.8 | 0.00 | 0.00 | 0.00 | 78 | 1013.3 |
| 20260508120538 | 5 | 240 | 0.0 | 4.8 | 0.00 | 0.00 | 0.00 | 81 | 1013.3 |
| 20260508120052 | 5 | 240 | 1.6 | 4.8 | 0.00 | 0.00 | 0.00 | 82 | 1013.3 |
| 20260508115538 | 4 | 240 | 0.0 | 4.8 | 0.00 | 0.00 | 0.00 | 84 | 1013.2 |
| 20260508115036 | 3 | 240 | 0.0 | 0.0 | 0.00 | 0.00 | 0.00 | 86 | 1013.1 |
| 20260508114550 | 3 | 240 | 0.0 | 0.0 | 0.00 | 0.00 | 0.00 | 85 | 1013.0 |
| 20260508114036 | 3 | 240 | 0.0 | 1.6 | 0.00 | 0.00 | 0.00 | 86 | 1013.0 |
| 20260508113534 | 3 | 240 | 0.0 | 1.6 | 0.00 | 0.00 | 0.00 | 86 | 1013.0 |
| 20260508113034 | 3 | 240 | 0.0 | 1.6 | 0.00 | 0.00 | 0.00 | 86 | 1012.9 |
| 20260508112534 | 3 | 240 | 0.0 | 0.0 | 0.00 | 0.00 | 0.00 | 86 | 1012.9 |
| 20260508112031 | 2 | 240 | 0.0 | 0.0 | 0.00 | 0.00 | 0.00 | 86 | 1012.9 |
| 20260508111531 | 2 | 240 | 0.0 | 0.0 | 0.00 | 0.00 | 0.00 | 86 | 1012.8 |
| 20260508111033 | 2 | 240 | 0.0 | 0.0 | 0.00 | 0.00 | 0.00 | 85 | 1012.9 |
| 20260508110531 | 2 | 240 | 0.0 | 0.0 | 0.00 | 0.00 | 0.00 | 85 | 1012.7 |
| 20260508110033 | 2 | 240 | 0.0 | 1.6 | 0.00 | 0.00 | 0.00 | 85 | 1012.8 |
| 20260508105530 | 2 | 239 | 0.0 | 1.6 | 0.00 | 0.00 | 0.00 | 84 | 1012.8 |
| 20260508105031 | 2 | 360 | 0.0 | 0.0 | 0.00 | 0.00 | 0.00 | 84 | 1012.9 |
| 20260508104533 | 2 | 360 | 0.0 | 0.0 | 0.00 | 0.00 | 0.00 | 84 | 1012.8 |
| 20260508104031 | 2 | 360 | 0.0 | 0.0 | 0.00 | 0.00 | 0.00 | 83 | 1012.9 |
| 20260508103528 | 2 | 360 | 0.0 | 1.6 | 0.00 | 0.00 | 0.00 | 83 | 1012.9 |
| 20260508103034 | 2 | 360 | 0.0 | 1.6 | 0.00 | 0.00 | 0.00 | 82 | 1012.8 |
| 20260508102531 | 2 | 360 | 0.0 | 0.0 | 0.00 | 0.00 | 0.00 | 82 | 1012.8 |
| 20260508102025 | 3 | 360 | 0.0 | 0.0 | 0.00 | 0.00 | 0.00 | 81 | 1012.7 |
| 20260508101526 | 3 | 360 | 0.0 | 0.0 | 0.00 | 0.00 | 0.00 | 81 | 1012.7 |
| 20260508101029 | 3 | 360 | 0.0 | 0.0 | 0.00 | 0.00 | 0.00 | 81 | 1012.7 |
| 20260508100524 | 3 | 360 | 0.0 | 0.0 | 0.00 | 0.00 | 0.00 | 81 | 1012.8 |
| 20260508100024 | 3 | 360 | 0.0 | 0.0 | 0.00 | 0.00 | 0.00 | 80 | 1012.7 |
| 20260508095523 | 3 | 360 | 0.0 | 0.0 | 0.00 | 0.00 | 0.00 | 80 | 1012.8 |
| 20260508095023 | 3 | 237 | 0.0 | 0.0 | 0.00 | 0.00 | 0.00 | 80 | 1012.8 |
| 20260508094524 | 3 | 360 | 0.0 | 0.0 | 0.00 | 0.00 | 0.00 | 79 | 1012.8 |
| 20260508094021 | 3 | 360 | 0.0 | 0.0 | 0.00 | 0.00 | 0.00 | 79 | 1012.8 |
| 20260508093520 | 3 | 360 | 0.0 | 0.0 | 0.00 | 0.00 | 0.00 | 79 | 1012.9 |
| 20260508093033 | 3 | 360 | 0.0 | 0.0 | 0.00 | 0.00 | 0.00 | 78 | 1012.9 |
| 20260508092518 | 4 | 360 | 0.0 | 0.0 | 0.00 | 0.00 | 0.00 | 78 | 1012.9 |
| 20260508092019 | 4 | 360 | 0.0 | 0.0 | 0.00 | 0.00 | 0.00 | 77 | 1013.0 |
| 20260508091520 | 5 | 360 | 0.0 | 1.6 | 0.00 | 0.00 | 0.00 | 77 | 1012.9 |
| 20260508091017 | 5 | 240 | 0.0 | 1.6 | 0.00 | 0.00 | 0.00 | 76 | 1012.9 |
| 20260508090514 | 5 | 240 | 0.0 | 1.6 | 0.00 | 0.00 | 0.00 | 76 | 1013.0 |
| 20260508090013 | 5 | 240 | 0.0 | 1.6 | 0.00 | 0.00 | 0.00 | 75 | 1013.0 |
| 20260508085515 | 5 | 240 | 0.0 | 4.8 | 0.00 | 0.00 | 0.00 | 75 | 1013.0 |
| 20260508085011 | 5 | 240 | 0.0 | 1.6 | 0.00 | 0.00 | 0.00 | 74 | 1013.0 |
| 20260508084511 | 5 | 240 | 0.0 | 3.2 | 0.00 | 0.00 | 0.00 | 74 | 1013.0 |
| 20260508084011 | 5 | 240 | 0.0 | 3.2 | 0.00 | 0.00 | 0.00 | 74 | 1013.0 |
| 20260508083510 | 5 | 240 | 0.0 | 3.2 | 0.00 | 0.00 | 0.00 | 74 | 1012.9 |
| 20260508083010 | 5 | 240 | 0.0 | 0.0 | 0.00 | 0.00 | 0.00 | 74 | 1013.1 |
| 20260508082512 | 6 | 240 | 0.0 | 1.6 | 0.00 | 0.00 | 0.00 | 75 | 1013.2 |
| 20260508082013 | 6 | 240 | 0.0 | 1.6 | 0.00 | 0.00 | 0.00 | 73 | 1013.1 |
| 20260508081510 | 6 | 240 | 0.0 | 3.2 | 0.00 | 0.00 | 0.00 | 73 | 1013.0 |
| 20260508081010 | 6 | 240 | 0.0 | 3.2 | 0.00 | 0.00 | 0.00 | 74 | 1013.2 |
| 20260508080507 | 6 | 240 | 0.0 | 1.6 | 0.00 | 0.00 | 0.00 | 72 | 1013.0 |
| 20260508080007 | 6 | 240 | 0.0 | 1.6 | 0.00 | 0.00 | 0.00 | 71 | 1012.9 |
| 20260508075507 | 6 | 240 | 0.0 | 1.6 | 0.00 | 0.00 | 0.00 | 71 | 1012.9 |
| 20260508075006 | 6 | 240 | 0.0 | 0.0 | 0.00 | 0.00 | 0.00 | 70 | 1012.9 |
| 20260508074504 | 6 | 240 | 0.0 | 0.0 | 0.00 | 0.00 | 0.00 | 70 | 1012.8 |
| 20260508074004 | 6 | 240 | 0.0 | 3.2 | 0.00 | 0.00 | 0.00 | 70 | 1012.8 |
| 20260508073505 | 6 | 240 | 0.0 | 3.2 | 0.00 | 0.00 | 0.00 | 69 | 1012.8 |
| 20260508073004 | 6 | 240 | 0.0 | 1.6 | 0.00 | 0.00 | 0.00 | 69 | 1012.9 |
| 20260508072505 | 6 | 238 | 0.0 | 4.8 | 0.00 | 0.00 | 0.00 | 70 | 1012.8 |
| 20260508072003 | 6 | 239 | 0.0 | 4.8 | 0.00 | 0.00 | 0.00 | 70 | 1012.8 |
| 20260508071505 | 6 | 238 | 0.0 | 3.2 | 0.00 | 0.00 | 0.00 | 70 | 1012.9 |
| 20260508071002 | 6 | 360 | 0.0 | 3.2 | 0.00 | 0.00 | 0.00 | 70 | 1013.1 |
| 20260508070501 | 6 | 360 | 0.0 | 1.6 | 0.00 | 0.00 | 0.00 | 69 | 1013.1 |
| 20260508070101 | 6 | 360 | 0.0 | 1.6 | 0.00 | 0.00 | 0.00 | 69 | 1013.2 |
| 20260508065600 | 7 | 240 | 0.0 | 0.0 | 0.00 | 0.00 | 0.00 | 70 | 1013.0 |
| 20260508065059 | 7 | 240 | 0.0 | 1.6 | 0.00 | 0.00 | 0.00 | 70 | 1013.0 |
| 20260508064558 | 7 | 240 | 0.0 | 1.6 | 0.00 | 0.00 | 0.00 | 69 | 1013.1 |
| 20260508064058 | 7 | 240 | 0.0 | 1.6 | 0.00 | 0.00 | 0.00 | 70 | 1013.1 |
| 20260508063558 | 7 | 240 | 0.0 | 3.2 | 0.00 | 0.00 | 0.00 | 70 | 1013.2 |
| 20260508063107 | 7 | 240 | 0.0 | 3.2 | 0.00 | 0.00 | 0.00 | 70 | 1013.2 |
| 20260508062600 | 7 | 240 | 0.0 | 6.4 | 0.00 | 0.00 | 0.00 | 71 | 1013.2 |
| 20260508062057 | 7 | 240 | 0.0 | 6.4 | 0.00 | 0.00 | 0.00 | 72 | 1013.2 |
| 20260508061557 | 7 | 240 | 0.0 | 6.4 | 0.00 | 0.00 | 0.00 | 74 | 1013.1 |
| 20260508061056 | 7 | 240 | 0.0 | 0.0 | 0.00 | 0.00 | 0.00 | 78 | 1013.4 |
| 20260508060555 | 7 | 240 | 0.0 | 1.6 | 0.00 | 0.00 | 0.00 | 77 | 1013.2 |
| 20260508060055 | 7 | 240 | 0.0 | 1.6 | 0.00 | 0.00 | 0.00 | 76 | 1013.0 |
| 20260508055557 | 7 | 240 | 0.0 | 0.0 | 0.00 | 0.00 | 0.00 | 76 | 1013.2 |
| 20260508055053 | 7 | 240 | 0.0 | 0.0 | 0.00 | 0.00 | 0.00 | 76 | 1013.2 |
| 20260508054553 | 7 | 240 | 0.0 | 0.0 | 0.00 | 0.00 | 0.00 | 76 | 1013.2 |
| 20260508054052 | 7 | 240 | 0.0 | 0.0 | 0.00 | 0.00 | 0.00 | 75 | 1013.4 |
| 20260508053552 | 7 | 240 | 0.0 | 0.0 | 0.00 | 0.00 | 0.00 | 74 | 1013.4 |
| 20260508053103 | 7 | 240 | 0.0 | 0.0 | 0.00 | 0.00 | 0.00 | 74 | 1013.2 |
| 20260508052551 | 7 | 240 | 0.0 | 0.0 | 0.00 | 0.00 | 0.00 | 73 | 1013.2 |
| 20260508052049 | 7 | 240 | 0.0 | 0.0 | 0.00 | 0.00 | 0.00 | 73 | 1013.4 |
| 20260508051549 | 7 | 240 | 0.0 | 3.2 | 0.00 | 0.00 | 0.00 | 72 | 1013.4 |
| 20260508051049 | 7 | 360 | 0.0 | 3.2 | 0.00 | 0.00 | 0.00 | 71 | 1013.3 |
| 20260508050547 | 7 | 360 | 0.0 | 6.4 | 0.00 | 0.00 | 0.00 | 71 | 1013.4 |
| 20260508050048 | 8 | 360 | 1.6 | 8.0 | 0.00 | 0.00 | 0.00 | 70 | 1013.4 |
| 20260508045547 | 8 | 360 | 3.2 | 9.7 | 0.00 | 0.00 | 0.00 | 70 | 1013.6 |
| 20260508045046 | 8 | 360 | 3.2 | 9.7 | 0.00 | 0.00 | 0.00 | 69 | 1013.6 |
| 20260508044546 | 8 | 360 | 3.2 | 6.4 | 0.00 | 0.00 | 0.00 | 68 | 1013.5 |
| 20260508044044 | 8 | 360 | 3.2 | 6.4 | 0.00 | 0.00 | 0.00 | 68 | 1013.3 |
| 20260508043544 | 8 | 360 | 1.6 | 6.4 | 0.00 | 0.00 | 0.00 | 67 | 1013.5 |
| 20260508043056 | 8 | 360 | 1.6 | 8.0 | 0.00 | 0.00 | 0.00 | 66 | 1013.5 |
| 20260508042544 | 8 | 360 | 1.6 | 8.0 | 0.00 | 0.00 | 0.00 | 65 | 1013.5 |
| 20260508042043 | 8 | 360 | 0.0 | 6.4 | 0.00 | 0.00 | 0.00 | 66 | 1013.5 |
| 20260508041549 | 8 | 360 | 3.2 | 6.4 | 0.00 | 0.00 | 0.00 | 65 | 1013.4 |
| 20260508041042 | 8 | 360 | 0.0 | 3.2 | 0.00 | 0.00 | 0.00 | 66 | 1013.5 |
| 20260508040541 | 8 | 360 | 0.0 | 3.2 | 0.00 | 0.00 | 0.00 | 61 | 1013.3 |
| 20260508040040 | 8 | 360 | 0.0 | 3.2 | 0.00 | 0.00 | 0.00 | 60 | 1013.4 |
| 20260508035539 | 8 | 252 | 0.0 | 1.6 | 0.00 | 0.00 | 0.00 | 62 | 1013.3 |
| 20260508035039 | 8 | 251 | 0.0 | 3.2 | 0.00 | 0.00 | 0.00 | 63 | 1013.4 |
| 20260508034539 | 8 | 360 | 0.0 | 3.2 | 0.00 | 0.00 | 0.00 | 59 | 1013.2 |
| 20260508034038 | 8 | 360 | 1.6 | 3.2 | 0.00 | 0.00 | 0.00 | 59 | 1013.0 |
| 20260508033538 | 8 | 360 | 0.0 | 0.0 | 0.00 | 0.00 | 0.00 | 58 | 1013.1 |
| 20260508033039 | 8 | 360 | 0.0 | 0.0 | 0.00 | 0.00 | 0.00 | 58 | 1013.2 |
| 20260508032538 | 8 | 360 | 0.0 | 0.0 | 0.00 | 0.00 | 0.00 | 57 | 1013.2 |
| 20260508032042 | 8 | 360 | 0.0 | 0.0 | 0.00 | 0.00 | 0.00 | 56 | 1013.2 |
| 20260508031537 | 8 | 252 | 0.0 | 0.0 | 0.00 | 0.00 | 0.00 | 57 | 1013.2 |
| 20260508031037 | 9 | 360 | 0.0 | 1.6 | 0.00 | 0.00 | 0.00 | 57 | 1013.4 |
| 20260508030537 | 9 | 360 | 0.0 | 1.6 | 0.00 | 0.00 | 0.00 | 55 | 1013.5 |
| 20260508030042 | 9 | 360 | 0.0 | 3.2 | 0.00 | 0.00 | 0.00 | 56 | 1013.4 |
| 20260508025537 | 9 | 253 | 0.0 | 4.8 | 0.00 | 0.00 | 0.00 | 55 | 1013.2 |
| 20260508025039 | 9 | 253 | 0.0 | 4.8 | 0.00 | 0.00 | 0.00 | 54 | 1013.3 |
| 20260508024536 | 9 | 253 | 0.0 | 6.4 | 0.00 | 0.00 | 0.00 | 54 | 1013.3 |
| 20260508024036 | 9 | 253 | 0.0 | 6.4 | 0.00 | 0.00 | 0.00 | 53 | 1013.4 |
| 20260508023537 | 10 | 253 | 0.0 | 3.2 | 0.00 | 0.00 | 0.00 | 54 | 1013.2 |
| 20260508023036 | 10 | 253 | 0.0 | 3.2 | 0.00 | 0.00 | 0.00 | 52 | 1013.2 |
| 20260508022536 | 10 | 253 | 0.0 | 4.8 | 0.00 | 0.00 | 0.00 | 52 | 1013.1 |
| 20260508022036 | 10 | 253 | 1.6 | 4.8 | 0.00 | 0.00 | 0.00 | 51 | 1013.2 |
| 20260508021541 | 10 | 253 | 0.0 | 3.2 | 0.00 | 0.00 | 0.00 | 51 | 1013.2 |
| 20260508021035 | 10 | 253 | 0.0 | 1.6 | 0.00 | 0.00 | 0.00 | 51 | 1013.2 |
| 20260508020535 | 10 | 253 | 0.0 | 4.8 | 0.00 | 0.00 | 0.00 | 50 | 1013.2 |
| 20260508020044 | 10 | 253 | 1.6 | 4.8 | 0.00 | 0.00 | 0.00 | 50 | 1013.1 |
| 20260508015535 | 10 | 253 | 0.0 | 3.2 | 0.00 | 0.00 | 0.00 | 48 | 1013.1 |
| 20260508015035 | 10 | 253 | 0.0 | 4.8 | 0.00 | 0.00 | 0.00 | 51 | 1013.2 |
| 20260508014538 | 10 | 253 | 1.6 | 4.8 | 0.00 | 0.00 | 0.00 | 48 | 1013.0 |
| 20260508014035 | 10 | 253 | 1.6 | 6.4 | 0.00 | 0.00 | 0.00 | 48 | 1012.9 |
| 20260508013534 | 10 | 253 | 1.6 | 8.0 | 0.00 | 0.00 | 0.00 | 49 | 1012.8 |
| 20260508013043 | 10 | 253 | 1.6 | 8.0 | 0.00 | 0.00 | 0.00 | 47 | 1012.8 |
| 20260508012534 | 10 | 253 | 3.2 | 11.3 | 0.00 | 0.00 | 0.00 | 47 | 1012.9 |
| 20260508012034 | 11 | 249 | 3.2 | 12.9 | 0.00 | 0.00 | 0.00 | 47 | 1012.8 |